2019-093F (44884 NORAD) Tracking and Keplerian Element Data

This shows tracking and keplerian element data for the satellite.

Feedback or suggestion? Click here.




ElementValue
Catalog44884
Name2019-093F
Epoch Orbit2976
Epoch Day190.14686838
Epoch Year2020
RAAN266.1181
Inclination97.957
Eccentricity0.0013305
Argument of Perigee343.7995
Mean Anonmoly16.2797
Mean Motion14.81831034
Decay Rate1.01E-06
L11 44884U 19093F 20190.14686838 .00000101 00000-0 19529-4 0 9998
L22 44884 97.9570 266.1181 0013305 343.7995 16.2797 14.81831034 29763

Live tracking and technical data element details for 2019-093F (NORAD 44884). 2019-093F can be tracked NOW for your location showing map with azimuth and elevation plus other details from your city location.

Track the satellite on the map from your city or location and see movement details for azimuth, elevation, latitude, longitude, range, height, and movement on the map or in text.







IsCatalogInMostPopularTable: catalog: 44884, numindb: 54
Update: records affected: 1



GetName: 44884 2019-093F

Hit Count: updated at: Fri, 10 Jul 2020 03:18:24 GMT